| time (UTC) | temp F | wind direction | speed MPH | gust MPH | rain 1hr in | rain 24hr in | rain mn in | humidity % | barometer mb |
| 20260504033819 | 62 | 203 | 4.0 | 9.0 | 0.00 | 0.00 | 0.00 | 65 | 1012.6 |
| 20260504032814 | 62 | 172 | 4.0 | 13.0 | 0.00 | 0.00 | 0.00 | 64 | 1012.5 |
| 20260504031815 | 63 | 208 | 2.0 | 11.0 | 0.00 | 0.00 | 0.00 | 64 | 1012.4 |
| 20260504030816 | 63 | 201 | 3.0 | 9.0 | 0.00 | 0.00 | 0.00 | 63 | 1012.3 |
| 20260504025811 | 64 | 224 | 4.0 | 10.0 | 0.00 | 0.00 | 0.00 | 62 | 1012.2 |
| 20260504024809 | 64 | 159 | 3.0 | 10.0 | 0.00 | 0.00 | 0.00 | 60 | 1011.9 |
| 20260504023808 | 65 | 182 | 5.0 | 11.0 | 0.00 | 0.00 | 0.00 | 59 | 1011.9 |
| 20260504022824 | 65 | 193 | 4.0 | 11.0 | 0.00 | 0.00 | 0.00 | 59 | 1011.8 |
| 20260504021822 | 66 | 208 | 4.0 | 11.0 | 0.00 | 0.00 | 0.00 | 58 | 1011.9 |
| 20260504020804 | 66 | 212 | 4.0 | 10.0 | 0.00 | 0.00 | 0.00 | 57 | 1011.6 |
| 20260504015816 | 67 | 192 | 2.0 | 8.0 | 0.00 | 0.00 | 0.00 | 56 | 1011.7 |
| 20260504014815 | 68 | 228 | 2.0 | 12.0 | 0.00 | 0.00 | 0.00 | 56 | 1011.8 |
| 20260504013836 | 68 | 260 | 5.0 | 13.0 | 0.00 | 0.00 | 0.00 | 55 | 1011.6 |
| 20260504012808 | 68 | 196 | 5.0 | 15.0 | 0.00 | 0.00 | 0.00 | 54 | 1011.4 |
| 20260504011828 | 69 | 260 | 6.0 | 10.0 | 0.00 | 0.00 | 0.00 | 53 | 1011.3 |
| 20260504010806 | 70 | 260 | 2.0 | 10.0 | 0.00 | 0.00 | 0.00 | 52 | 1011.4 |
| 20260504005821 | 70 | 228 | 4.0 | 11.0 | 0.00 | 0.00 | 0.00 | 53 | 1011.4 |
| 20260504004803 | 69 | 238 | 3.0 | 9.0 | 0.00 | 0.00 | 0.00 | 53 | 1011.3 |
| 20260504003822 | 69 | 238 | 6.0 | 12.0 | 0.00 | 0.00 | 0.00 | 53 | 1011.4 |
| 20260504002838 | 69 | 238 | 5.0 | 11.0 | 0.00 | 0.00 | 0.00 | 53 | 1011.3 |
| 20260504001817 | 69 | 239 | 4.0 | 11.0 | 0.00 | 0.00 | 0.00 | 53 | 1011.3 |
| 20260504000814 | 70 | 162 | 4.0 | 13.0 | 0.00 | 0.00 | 0.00 | 54 | 1011.3 |
| 20260503235811 | 70 | 203 | 4.0 | 9.0 | 0.00 | 0.00 | 0.00 | 54 | 1011.4 |
| 20260503234804 | 69 | 193 | 1.0 | 6.0 | 0.00 | 0.00 | 0.00 | 55 | 1011.5 |
| 20260503233804 | 68 | 137 | 3.0 | 8.0 | 0.00 | 0.00 | 0.00 | 57 | 1011.7 |
| 20260503232820 | 68 | 167 | 3.0 | 5.0 | 0.00 | 0.00 | 0.00 | 56 | 1012.0 |
| 20260503231819 | 68 | 239 | 2.0 | 9.0 | 0.00 | 0.00 | 0.00 | 58 | 1012.0 |
| 20260503230820 | 68 | 224 | 2.0 | 7.0 | 0.00 | 0.00 | 0.00 | 58 | 1012.0 |
| 20260503225814 | 67 | 89 | 4.0 | 7.0 | 0.00 | 0.00 | 0.00 | 58 | 1012.1 |
| 20260503224817 | 68 | 229 | 3.0 | 10.0 | 0.00 | 0.00 | 0.00 | 58 | 1011.9 |
| 20260503223817 | 67 | 169 | 3.0 | 7.0 | 0.00 | 0.00 | 0.00 | 60 | 1012.0 |
| 20260503222815 | 66 | 123 | 3.0 | 11.0 | 0.00 | 0.00 | 0.00 | 59 | 1012.0 |
| 20260503221816 | 67 | 189 | 6.0 | 11.0 | 0.00 | 0.00 | 0.00 | 59 | 1012.0 |
| 20260503220813 | 67 | 187 | 4.0 | 11.0 | 0.00 | 0.00 | 0.00 | 59 | 1011.9 |
| 20260503215812 | 67 | 166 | 6.0 | 12.0 | 0.00 | 0.00 | 0.00 | 59 | 1011.9 |
| 20260503214816 | 67 | 197 | 4.0 | 11.0 | 0.00 | 0.00 | 0.00 | 60 | 1011.9 |
| 20260503213817 | 67 | 149 | 3.0 | 10.0 | 0.00 | 0.00 | 0.00 | 59 | 1011.9 |
| 20260503212811 | 66 | 185 | 4.0 | 11.0 | 0.00 | 0.00 | 0.00 | 60 | 1012.1 |
| 20260503211810 | 66 | 163 | 6.0 | 12.0 | 0.00 | 0.00 | 0.00 | 58 | 1012.0 |
| 20260503210810 | 66 | 245 | 5.0 | 12.0 | 0.00 | 0.00 | 0.00 | 60 | 1012.0 |
| 20260503205808 | 67 | 170 | 4.0 | 11.0 | 0.00 | 0.00 | 0.00 | 60 | 1012.1 |
| 20260503204828 | 67 | 231 | 4.0 | 16.0 | 0.00 | 0.00 | 0.00 | 59 | 1012.1 |
| 20260503203821 | 67 | 168 | 7.0 | 13.0 | 0.00 | 0.00 | 0.00 | 57 | 1012.2 |
| 20260503202821 | 66 | 243 | 5.0 | 12.0 | 0.00 | 0.00 | 0.00 | 59 | 1012.2 |
| 20260503201804 | 66 | 265 | 6.0 | 11.0 | 0.00 | 0.00 | 0.00 | 59 | 1012.4 |
| 20260503200806 | 66 | 220 | 4.0 | 11.0 | 0.00 | 0.00 | 0.00 | 61 | 1012.4 |
| 20260503195821 | 66 | 199 | 3.0 | 12.0 | 0.00 | 0.00 | 0.00 | 61 | 1012.6 |
| 20260503194804 | 65 | 224 | 3.0 | 9.0 | 0.00 | 0.00 | 0.00 | 62 | 1012.6 |
| 20260503193804 | 65 | 127 | 4.0 | 10.0 | 0.00 | 0.00 | 0.00 | 61 | 1012.7 |
| 20260503192820 | 65 | 132 | 8.0 | 12.0 | 0.00 | 0.00 | 0.00 | 60 | 1012.8 |
| 20260503191839 | 66 | 303 | 3.0 | 11.0 | 0.00 | 0.00 | 0.00 | 61 | 1012.7 |
| 20260503190821 | 66 | 202 | 8.0 | 15.0 | 0.00 | 0.00 | 0.00 | 60 | 1012.8 |
| 20260503185811 | 66 | 132 | 4.0 | 15.0 | 0.00 | 0.00 | 0.00 | 62 | 1012.9 |
| 20260503184812 | 66 | 260 | 6.0 | 12.0 | 0.00 | 0.00 | 0.00 | 62 | 1012.9 |
| 20260503183810 | 65 | 247 | 6.0 | 11.0 | 0.00 | 0.00 | 0.00 | 63 | 1013.0 |
| 20260503182806 | 64 | 153 | 7.0 | 13.0 | 0.00 | 0.00 | 0.00 | 63 | 1012.9 |
| 20260503181821 | 63 | 164 | 7.0 | 12.0 | 0.00 | 0.00 | 0.00 | 67 | 1012.8 |
| 20260503180821 | 62 | 205 | 4.0 | 12.0 | 0.00 | 0.00 | 0.00 | 68 | 1012.7 |
| 20260503175839 | 62 | 178 | 7.0 | 14.0 | 0.00 | 0.00 | 0.00 | 67 | 1012.8 |
| 20260503174820 | 62 | 213 | 5.0 | 14.0 | 0.00 | 0.00 | 0.00 | 70 | 1012.9 |
| 20260503173802 | 61 | 171 | 5.0 | 15.0 | 0.00 | 0.00 | 0.00 | 71 | 1012.9 |
| 20260503172842 | 61 | 185 | 10.0 | 15.0 | 0.00 | 0.00 | 0.00 | 69 | 1012.9 |
| 20260503171816 | 61 | 203 | 7.0 | 12.0 | 0.00 | 0.00 | 0.00 | 71 | 1012.7 |
| 20260503170819 | 61 | 177 | 5.0 | 10.0 | 0.00 | 0.00 | 0.00 | 72 | 1012.6 |
| 20260503150807 | 56 | 135 | 4.0 | 12.0 | 0.00 | 0.00 | 0.00 | 82 | 1011.7 |
| 20260503130839 | 53 | 114 | 5.0 | 12.0 | 0.00 | 0.00 | 0.00 | 85 | 1010.2 |
| 20260503110808 | 54 | 126 | 4.0 | 8.0 | 0.00 | 0.00 | 0.00 | 85 | 1010.1 |
| 20260503080812 | 56 | 155 | 2.0 | 4.0 | 0.00 | 0.00 | 0.00 | 81 | 1010.6 |
| 20260503072819 | 56 | 117 | 2.0 | 7.0 | 0.00 | 0.00 | 0.00 | 80 | 1010.9 |
| 20260503071803 | 56 | 188 | 2.0 | 7.0 | 0.00 | 0.00 | 0.00 | 79 | 1010.9 |
| 20260503070807 | 57 | 192 | 2.0 | 6.0 | 0.00 | 0.00 | 0.00 | 78 | 1010.9 |
| 20260503054807 | 59 | 159 | 2.0 | 7.0 | 0.00 | 0.00 | 0.00 | 73 | 1011.1 |
| 20260503053805 | 59 | 178 | 2.0 | 4.0 | 0.00 | 0.00 | 0.00 | 72 | 1011.0 |
| 20260503052822 | 59 | 168 | 1.0 | 7.0 | 0.00 | 0.00 | 0.00 | 72 | 1011.0 |
| 20260503051844 | 60 | 228 | 2.0 | 7.0 | 0.00 | 0.00 | 0.00 | 71 | 1011.0 |
| 20260503050807 | 60 | 150 | 3.0 | 6.0 | 0.00 | 0.00 | 0.00 | 72 | 1011.0 |
| 20260503045822 | 61 | 193 | 1.0 | 3.0 | 0.00 | 0.00 | 0.00 | 70 | 1010.9 |
| 20260503044821 | 61 | 197 | 1.0 | 6.0 | 0.00 | 0.00 | 0.00 | 70 | 1011.0 |
| 20260503043818 | 61 | 193 | 3.0 | 5.0 | 0.00 | 0.00 | 0.00 | 70 | 1010.8 |
| 20260503042814 | 62 | 161 | 2.0 | 7.0 | 0.00 | 0.00 | 0.00 | 70 | 1010.8 |
| 20260503041815 | 62 | 199 | 3.0 | 7.0 | 0.00 | 0.00 | 0.00 | 69 | 1010.6 |
| 20260503040815 | 62 | 184 | 5.0 | 9.0 | 0.00 | 0.00 | 0.00 | 69 | 1010.6 |
| 20260503035812 | 63 | 193 | 2.0 | 7.0 | 0.00 | 0.00 | 0.00 | 67 | 1010.4 |
| 20260503034812 | 63 | 172 | 3.0 | 7.0 | 0.00 | 0.00 | 0.00 | 67 | 1010.2 |